Location: St. Louis
(38.6270°N, 90.1994°W)
Time: 12:57:28
(UTC-06:00)

Transit 4A - Pass Details

Date: 09 December 2021
Orbit: 864 x 980 km, 66.8° (Epoch: 16 January)

Event Time Altitude Azimuth Distance (km) Brightness Sun altitude
Rises 16:27:30 0° 168° (SSE) 3,438 11.1 1.2°
Reaches altitude 10° 16:30:31 10° 152° (SSE) 2,516 10.2 0.7°
Maximum altitude 16:34:46 21° 105° (ESE) 1,865 9.1 0.0°
Drops below altitude 10° 16:39:06 10° 58° (ENE) 2,575 9.6 -0.8°
Sets 16:42:12 0° 43° (NE) 3,541 10.3 -1.3°
Enters shadow 16:42:15 - 43° (NE) 3,554 10.3 -1.3°
